Weather in Zelenogorskoe

Ukraine / Odesa District     47°52′21″N   30°05′51″E
temp.,
°C
wind,
m/s
gust,
m/s
humid.,
%
clouds,
%
prec.,
mm/h
press.,
hPa
HPBL,
m
20 april, tue
tue2000:00+8ne3677100 0.0 1013176
03:00+6ne368183 0.0 1011117
06:00+5nne3581100 0.0 1010130
09:00+9n5767100 0.0 1010500
12:00+13n6647100 0.0 10081949
15:00+12nnw4658100 0.1 10081238
18:00+12nw4756100 0.3 1008611
21:00+8wnw34685 0.3 101050
21 april, wed
wed2100:00+7w357587 0.0 101180
03:00+6w3782100 0.0 1011120
06:00+5wsw23925 0.0 101247
09:00+10w3469100 0.0 1013419
12:00+14w4553100 0.9 10131521
15:00+15wsw5646100 1.5 10132108
18:00+15wsw465247 0.2 10141646
21:00+10wsw227134 0.3 101620
22 april, thu
thu2200:00+9sw227017 0.0 101616
03:00+8ssw22710 0.0 101625
06:00+7ssw22775 0.0 101716
09:00+13ssw46615 0.0 1017389
12:00+17ssw56435 0.0 10171959
15:00+19sw563780 0.0 10172604
18:00+17ssw355085 0.0 1016247
21:00+13s466191 0.0 1017110
23 april, fri
fri2300:00+11s411685 0.0 1017275
03:00+9s4117912 0.9 1017219
06:00+8s410861 0.0 1016201
09:00+13ssw610675 0.0 1016457
12:00+18ssw9125074 0.1 10152075
15:00+13wsw51170100 2.3 1014336
18:00+7nnw91390100 6.8 1017583
21:00+5n4789100 11.1 1020523
24 april, sat
sat2400:00+5wnw3589100 0.1 1020335
03:00+4w410924 0.1 1020267
06:00+3wnw512840 0.0 1021348
09:00+6nw812570 0.0 10231200
12:00+8nw811370 0.0 10231774
15:00+10nw79375 0.0 10221982
18:00+10wnw473967 0.0 10222062
21:00+6ssw34555 0.0 102254